Time,TemperatureF,DewpointF,PressureIn,WindDirection,WindDirectionDegrees,WindSpeedMPH,WindSpeedGustMPH,Humidity,HourlyPrecipIn,Conditions,Clouds,dailyrainin,SoftwareType,DateUTC
2013-03-09 00:00:00,26.5,24.0,29.81,SSW,202,0.0,0.0,85,0.00,,,0.00,Rainwise IP-100,2013-03-09 05:00:00,
2013-03-09 00:05:00,26.0,23.0,29.81,NNW,337,0.0,3.5,85,0.00,,,0.00,Rainwise IP-100,2013-03-09 05:05:00,
2013-03-09 00:10:00,25.5,23.0,29.81,NNE,22,3.0,3.0,85,0.00,,,0.00,Rainwise IP-100,2013-03-09 05:10:00,
2013-03-09 00:15:00,25.5,23.0,29.81,NNE,22,2.1,4.0,86,0.00,,,0.00,Rainwise IP-100,2013-03-09 05:15:00,
2013-03-09 00:20:00,25.7,23.0,29.81,NNE,22,1.2,2.6,87,0.00,,,0.00,Rainwise IP-100,2013-03-09 05:20:00,
2013-03-09 00:25:00,25.8,23.0,29.81,NNE,22,0.0,2.3,87,0.00,,,0.00,Rainwise IP-100,2013-03-09 05:25:00,
2013-03-09 00:28:00,25.6,23.0,29.81,NNE,22,0.0,2.3,87,0.00,,,0.00,Rainwise IP-100,2013-03-09 05:28:00,
2013-03-09 00:33:00,25.2,23.0,29.81,NNE,22,0.0,0.0,87,0.00,,,0.00,Rainwise IP-100,2013-03-09 05:33:00,
2013-03-09 00:38:00,25.4,23.0,29.81,NNE,22,0.0,1.4,87,0.00,,,0.00,Rainwise IP-100,2013-03-09 05:38:00,
2013-03-09 00:43:00,25.6,23.0,29.81,NNE,22,0.0,2.1,88,0.00,,,0.00,Rainwise IP-100,2013-03-09 05:43:00,
2013-03-09 00:48:00,25.5,23.0,29.82,NNE,22,0.0,0.0,88,0.00,,,0.00,Rainwise IP-100,2013-03-09 05:48:00,
2013-03-09 00:53:00,25.0,23.0,29.82,NNE,22,0.0,0.0,88,0.00,,,0.00,Rainwise IP-100,2013-03-09 05:53:00,
2013-03-09 00:58:00,24.6,23.0,29.82,NNE,22,0.0,0.0,88,0.00,,,0.00,Rainwise IP-100,2013-03-09 05:58:00,
2013-03-09 01:04:00,24.5,23.0,29.82,NNE,22,0.0,0.0,88,0.00,,,0.00,Rainwise IP-100,2013-03-09 06:04:00,
2013-03-09 01:09:00,24.3,23.0,29.82,NNE,22,0.0,0.0,89,0.00,,,0.00,Rainwise IP-100,2013-03-09 06:09:00,
2013-03-09 01:14:00,24.4,23.0,29.82,NNE,22,0.0,1.2,90,0.00,,,0.00,Rainwise IP-100,2013-03-09 06:14:00,
2013-03-09 01:19:00,24.5,24.0,29.83,NNE,22,0.0,0.0,90,0.00,,,0.00,Rainwise IP-100,2013-03-09 06:19:00,
2013-03-09 01:24:00,24.1,23.0,29.82,NNE,22,0.0,0.0,90,0.00,,,0.00,Rainwise IP-100,2013-03-09 06:24:00,
2013-03-09 01:29:00,23.7,23.0,29.82,NNE,22,0.0,0.0,90,0.00,,,0.00,Rainwise IP-100,2013-03-09 06:29:00,
2013-03-09 01:34:00,23.5,23.0,29.82,NNE,22,0.0,1.4,90,0.00,,,0.00,Rainwise IP-100,2013-03-09 06:34:00,
2013-03-09 01:39:00,23.5,23.0,29.82,NNE,22,0.0,1.4,91,0.00,,,0.00,Rainwise IP-100,2013-03-09 06:39:00,
2013-03-09 01:44:00,23.7,23.0,29.81,NNE,22,0.0,0.0,91,0.00,,,0.00,Rainwise IP-100,2013-03-09 06:44:00,
2013-03-09 01:49:00,23.7,23.0,29.81,NNE,22,0.0,0.0,91,0.00,,,0.00,Rainwise IP-100,2013-03-09 06:49:00,
2013-03-09 01:54:00,23.7,23.0,29.82,NNE,22,0.0,1.2,91,0.00,,,0.00,Rainwise IP-100,2013-03-09 06:54:00,
2013-03-09 01:59:00,23.5,23.0,29.81,NNE,22,0.0,0.0,91,0.00,,,0.00,Rainwise IP-100,2013-03-09 06:59:00,
2013-03-09 02:04:00,23.1,21.0,29.81,NNE,22,0.0,0.0,91,0.00,,,0.00,Rainwise IP-100,2013-03-09 07:04:00,
2013-03-09 02:09:00,23.0,21.0,29.81,NNE,22,0.0,0.0,92,0.00,,,0.00,Rainwise IP-100,2013-03-09 07:09:00,
2013-03-09 02:15:00,22.9,21.0,29.81,NNE,22,0.0,1.4,92,0.00,,,0.00,Rainwise IP-100,2013-03-09 07:15:00,
2013-03-09 02:20:00,23.0,21.0,29.81,NNE,22,0.0,1.2,92,0.00,,,0.00,Rainwise IP-100,2013-03-09 07:20:00,
2013-03-09 02:25:00,23.0,21.0,29.81,NNE,22,0.0,1.2,92,0.00,,,0.00,Rainwise IP-100,2013-03-09 07:25:00,
2013-03-09 02:30:00,22.8,21.0,29.80,NNE,22,0.0,0.0,92,0.00,,,0.00,Rainwise IP-100,2013-03-09 07:30:00,
2013-03-09 02:35:00,22.5,21.0,29.81,NNE,22,0.0,0.0,93,0.00,,,0.00,Rainwise IP-100,2013-03-09 07:35:00,
2013-03-09 02:40:00,22.2,21.0,29.80,NNE,22,0.0,0.0,93,0.00,,,0.00,Rainwise IP-100,2013-03-09 07:40:00,
2013-03-09 02:45:00,22.0,21.0,29.81,NNE,22,0.0,1.6,93,0.00,,,0.00,Rainwise IP-100,2013-03-09 07:45:00,
2013-03-09 02:50:00,22.0,21.0,29.81,NNE,22,0.0,1.6,93,0.00,,,0.00,Rainwise IP-100,2013-03-09 07:50:00,
2013-03-09 02:55:00,21.8,21.0,29.81,NNE,22,0.0,1.2,93,0.00,,,0.00,Rainwise IP-100,2013-03-09 07:55:00,
2013-03-09 03:00:00,21.4,18.0,29.80,NNE,22,0.0,0.0,93,0.00,,,0.00,Rainwise IP-100,2013-03-09 08:00:00,
2013-03-09 03:05:00,21.4,18.0,29.80,NNE,22,0.0,0.0,93,0.00,,,0.00,Rainwise IP-100,2013-03-09 08:05:00,
2013-03-09 03:10:00,21.7,21.0,29.81,NNE,22,0.0,0.0,94,0.00,,,0.00,Rainwise IP-100,2013-03-09 08:10:00,
2013-03-09 03:15:00,21.7,21.0,29.80,NNE,22,0.0,0.0,94,0.00,,,0.00,Rainwise IP-100,2013-03-09 08:15:00,
2013-03-09 03:20:00,21.3,18.0,29.80,NNE,22,0.0,1.2,94,0.00,,,0.00,Rainwise IP-100,2013-03-09 08:20:00,
2013-03-09 03:26:00,20.9,18.0,29.80,NNE,22,0.0,0.0,94,0.00,,,0.00,Rainwise IP-100,2013-03-09 08:26:00,
2013-03-09 03:31:00,20.7,18.0,29.80,NNE,22,0.0,1.2,94,0.00,,,0.00,Rainwise IP-100,2013-03-09 08:31:00,
2013-03-09 03:36:00,20.8,18.0,29.80,NNE,22,0.0,1.2,94,0.00,,,0.00,Rainwise IP-100,2013-03-09 08:36:00,
2013-03-09 03:41:00,20.8,18.0,29.80,NNE,22,0.0,0.0,94,0.00,,,0.00,Rainwise IP-100,2013-03-09 08:41:00,
2013-03-09 03:46:00,20.6,18.0,29.81,NNE,22,0.0,0.0,95,0.00,,,0.00,Rainwise IP-100,2013-03-09 08:46:00,
2013-03-09 03:51:00,20.7,18.0,29.81,NNE,22,0.0,0.0,95,0.00,,,0.00,Rainwise IP-100,2013-03-09 08:51:00,
2013-03-09 03:56:00,20.8,18.0,29.81,NNE,22,0.0,0.0,95,0.00,,,0.00,Rainwise IP-100,2013-03-09 08:56:00,
2013-03-09 04:01:00,20.7,18.0,29.81,NNE,22,0.0,0.0,95,0.00,,,0.00,Rainwise IP-100,2013-03-09 09:01:00,
2013-03-09 04:06:00,20.5,18.0,29.81,NNE,22,0.0,0.0,95,0.00,,,0.00,Rainwise IP-100,2013-03-09 09:06:00,
2013-03-09 04:11:00,20.5,18.0,29.82,NNE,22,0.0,1.4,95,0.00,,,0.00,Rainwise IP-100,2013-03-09 09:11:00,
2013-03-09 04:16:00,20.6,18.0,29.82,NNE,22,0.0,1.2,95,0.00,,,0.00,Rainwise IP-100,2013-03-09 09:16:00,
2013-03-09 04:21:00,20.5,18.0,29.82,NNE,22,0.0,1.2,95,0.00,,,0.00,Rainwise IP-100,2013-03-09 09:21:00,
2013-03-09 04:26:00,20.6,18.0,29.82,NNE,22,0.0,0.0,95,0.00,,,0.00,Rainwise IP-100,2013-03-09 09:26:00,
2013-03-09 04:31:00,20.4,18.0,29.83,NNE,22,0.0,0.0,95,0.00,,,0.00,Rainwise IP-100,2013-03-09 09:31:00,
2013-03-09 04:36:00,20.2,18.0,29.83,NNE,22,0.0,0.0,95,0.00,,,0.00,Rainwise IP-100,2013-03-09 09:36:00,
2013-03-09 04:41:00,20.0,21.0,29.83,NNE,22,1.4,1.4,96,0.00,,,0.00,Rainwise IP-100,2013-03-09 09:41:00,
2013-03-09 04:47:00,20.0,21.0,29.83,NNE,22,0.0,1.9,96,0.00,,,0.00,Rainwise IP-100,2013-03-09 09:47:00,
2013-03-09 04:52:00,20.0,21.0,29.83,NNE,22,0.0,0.0,96,0.00,,,0.00,Rainwise IP-100,2013-03-09 09:52:00,
2013-03-09 04:57:00,19.8,21.0,29.83,NNE,22,0.0,0.0,96,0.00,,,0.00,Rainwise IP-100,2013-03-09 09:57:00,
2013-03-09 05:02:00,19.8,21.0,29.83,NNE,22,0.0,0.0,96,0.00,,,0.00,Rainwise IP-100,2013-03-09 10:02:00,
2013-03-09 05:07:00,19.5,21.0,29.83,NNE,22,0.0,0.0,96,0.00,,,0.00,Rainwise IP-100,2013-03-09 10:07:00,
2013-03-09 05:12:00,19.2,21.0,29.83,NNE,22,0.0,0.0,96,0.00,,,0.00,Rainwise IP-100,2013-03-09 10:12:00,
2013-03-09 05:17:00,19.0,21.0,29.83,NNE,22,0.0,1.2,96,0.00,,,0.00,Rainwise IP-100,2013-03-09 10:17:00,
2013-03-09 05:22:00,18.8,21.0,29.84,NNE,22,0.0,0.0,96,0.00,,,0.00,Rainwise IP-100,2013-03-09 10:22:00,
2013-03-09 05:27:00,18.9,21.0,29.84,NNE,22,0.0,0.0,96,0.00,,,0.00,Rainwise IP-100,2013-03-09 10:27:00,
2013-03-09 05:32:00,19.3,21.0,29.84,NNE,22,0.0,0.0,96,0.00,,,0.00,Rainwise IP-100,2013-03-09 10:32:00,
2013-03-09 05:37:00,19.2,21.0,29.84,NNE,22,0.0,1.2,96,0.00,,,0.00,Rainwise IP-100,2013-03-09 10:37:00,
2013-03-09 05:42:00,18.7,21.0,29.84,NNE,22,0.0,0.0,96,0.00,,,0.00,Rainwise IP-100,2013-03-09 10:42:00,
2013-03-09 05:47:00,18.5,21.0,29.84,NNE,22,0.0,0.0,96,0.00,,,0.00,Rainwise IP-100,2013-03-09 10:47:00,
2013-03-09 05:52:00,18.4,18.0,29.85,NNE,22,0.0,0.0,97,0.00,,,0.00,Rainwise IP-100,2013-03-09 10:52:00,
2013-03-09 05:57:00,18.3,18.0,29.85,NNE,22,0.0,0.0,97,0.00,,,0.00,Rainwise IP-100,2013-03-09 10:57:00,
2013-03-09 06:03:00,18.3,18.0,29.85,NNE,22,0.0,0.0,97,0.00,,,0.00,Rainwise IP-100,2013-03-09 11:03:00,
2013-03-09 06:08:00,18.4,18.0,29.85,NNE,22,0.0,0.0,97,0.00,,,0.00,Rainwise IP-100,2013-03-09 11:08:00,
2013-03-09 06:13:00,18.3,18.0,29.85,NNE,22,0.0,0.0,97,0.00,,,0.00,Rainwise IP-100,2013-03-09 11:13:00,
2013-03-09 06:18:00,18.0,18.0,29.85,NNE,22,0.0,0.0,97,0.00,,,0.00,Rainwise IP-100,2013-03-09 11:18:00,
2013-03-09 06:23:00,18.1,18.0,29.86,NNE,22,0.0,0.0,97,0.00,,,0.00,Rainwise IP-100,2013-03-09 11:23:00,
2013-03-09 06:28:00,18.3,18.0,29.85,NNE,22,0.0,0.0,97,0.00,,,0.00,Rainwise IP-100,2013-03-09 11:28:00,
2013-03-09 06:33:00,18.4,18.0,29.85,NNE,22,0.0,0.0,97,0.00,,,0.00,Rainwise IP-100,2013-03-09 11:33:00,
2013-03-09 06:38:00,18.6,21.0,29.86,NNE,22,0.0,0.0,97,0.00,,,0.00,Rainwise IP-100,2013-03-09 11:38:00,
2013-03-09 06:43:00,19.1,21.0,29.86,NNE,22,0.0,0.0,97,0.00,,,0.00,Rainwise IP-100,2013-03-09 11:43:00,
2013-03-09 06:48:00,19.8,21.0,29.86,NNE,22,0.0,0.0,97,0.00,,,0.00,Rainwise IP-100,2013-03-09 11:48:00,
2013-03-09 06:53:00,20.3,21.0,29.87,NNE,22,1.2,1.6,98,0.00,,,0.00,Rainwise IP-100,2013-03-09 11:53:00,
2013-03-09 06:58:00,20.5,21.0,29.87,NNE,22,0.0,1.4,97,0.00,,,0.00,Rainwise IP-100,2013-03-09 11:58:00,
2013-03-09 07:03:00,20.4,21.0,29.88,NNE,22,0.0,1.9,97,0.00,,,0.00,Rainwise IP-100,2013-03-09 12:03:00,
2013-03-09 07:08:00,20.8,21.0,29.87,NNE,22,0.0,1.4,97,0.00,,,0.00,Rainwise IP-100,2013-03-09 12:08:00,
2013-03-09 07:13:00,21.9,23.0,29.88,NNE,22,0.0,1.4,97,0.00,,,0.00,Rainwise IP-100,2013-03-09 12:13:00,
2013-03-09 07:19:00,22.6,23.0,29.87,NNE,22,0.0,1.6,98,0.00,,,0.00,Rainwise IP-100,2013-03-09 12:19:00,
2013-03-09 07:24:00,23.2,23.0,29.87,NNE,22,1.4,1.6,98,0.00,,,0.00,Rainwise IP-100,2013-03-09 12:24:00,
2013-03-09 07:29:00,23.8,24.0,29.88,NNE,22,2.1,2.1,98,0.00,,,0.00,Rainwise IP-100,2013-03-09 12:29:00,
2013-03-09 07:34:00,24.3,24.0,29.88,NNE,22,1.4,2.1,98,0.00,,,0.00,Rainwise IP-100,2013-03-09 12:34:00,
2013-03-09 07:39:00,24.9,26.0,29.88,NNE,22,0.0,1.6,99,0.00,,,0.00,Rainwise IP-100,2013-03-09 12:39:00,
2013-03-09 07:44:00,25.9,26.0,29.88,NNE,22,0.0,0.0,99,0.00,,,0.00,Rainwise IP-100,2013-03-09 12:44:00,
2013-03-09 07:49:00,27.2,28.0,29.88,NNE,22,0.0,1.2,99,0.00,,,0.00,Rainwise IP-100,2013-03-09 12:49:00,
2013-03-09 07:54:00,28.3,28.0,29.88,NE,45,0.0,1.2,99,0.00,,,0.00,Rainwise IP-100,2013-03-09 12:54:00,
2013-03-09 07:59:00,29.4,29.0,29.88,ENE,67,0.0,1.9,99,0.00,,,0.00,Rainwise IP-100,2013-03-09 12:59:00,
2013-03-09 08:04:00,30.5,31.0,29.88,ENE,67,0.0,1.9,99,0.00,,,0.00,Rainwise IP-100,2013-03-09 13:04:00,
2013-03-09 08:09:00,31.1,31.0,29.88,ENE,67,0.0,3.0,100,0.00,,,0.00,Rainwise IP-100,2013-03-09 13:09:00,
2013-03-09 08:14:00,30.7,31.0,29.88,ENE,67,0.0,4.4,99,0.00,,,0.00,Rainwise IP-100,2013-03-09 13:14:00,
2013-03-09 08:19:00,30.3,31.0,29.88,ENE,67,2.1,4.2,99,0.00,,,0.00,Rainwise IP-100,2013-03-09 13:19:00,
2013-03-09 08:24:00,29.9,31.0,29.88,NE,45,2.6,4.2,98,0.00,,,0.00,Rainwise IP-100,2013-03-09 13:24:00,
2013-03-09 08:29:00,29.6,29.0,29.88,ENE,67,2.8,4.4,97,0.00,,,0.00,Rainwise IP-100,2013-03-09 13:29:00,
2013-03-09 08:35:00,29.4,28.0,29.88,ENE,67,3.0,5.4,96,0.00,,,0.00,Rainwise IP-100,2013-03-09 13:35:00,
2013-03-09 08:40:00,29.3,28.0,29.88,ENE,67,3.7,5.4,94,0.00,,,0.00,Rainwise IP-100,2013-03-09 13:40:00,
2013-03-09 08:45:00,29.7,28.0,29.88,ENE,67,3.0,4.7,90,0.00,,,0.00,Rainwise IP-100,2013-03-09 13:45:00,
2013-03-09 08:50:00,30.1,28.0,29.88,ENE,67,4.0,4.2,89,0.00,,,0.00,Rainwise IP-100,2013-03-09 13:50:00,
2013-03-09 08:55:00,30.6,28.0,29.88,ENE,67,3.0,4.9,87,0.00,,,0.00,Rainwise IP-100,2013-03-09 13:55:00,
2013-03-09 09:00:00,31.1,28.0,29.88,ENE,67,2.8,4.0,86,0.00,,,0.00,Rainwise IP-100,2013-03-09 14:00:00,
2013-03-09 09:05:00,31.5,28.0,29.88,ENE,67,3.3,3.7,85,0.00,,,0.00,Rainwise IP-100,2013-03-09 14:05:00,
2013-03-09 09:10:00,31.9,28.0,29.87,ENE,67,4.2,4.2,84,0.00,,,0.00,Rainwise IP-100,2013-03-09 14:10:00,
2013-03-09 09:15:00,32.2,28.0,29.88,ENE,67,1.4,4.2,83,0.00,,,0.00,Rainwise IP-100,2013-03-09 14:15:00,
2013-03-09 09:20:00,33.5,31.0,29.88,ENE,67,1.9,2.1,85,0.00,,,0.00,Rainwise IP-100,2013-03-09 14:20:00,
2013-03-09 09:25:00,35.3,31.0,29.88,ENE,67,1.6,2.1,87,0.00,,,0.00,Rainwise IP-100,2013-03-09 14:25:00,
2013-03-09 09:30:00,36.6,33.0,29.88,ENE,67,0.0,1.9,86,0.00,,,0.00,Rainwise IP-100,2013-03-09 14:30:00,
2013-03-09 09:35:00,37.7,35.0,29.88,ENE,67,4.0,4.0,85,0.00,,,0.00,Rainwise IP-100,2013-03-09 14:35:00,
2013-03-09 09:40:00,36.5,32.0,29.88,ENE,67,4.4,4.9,80,0.00,,,0.00,Rainwise IP-100,2013-03-09 14:40:00,
2013-03-09 09:45:00,34.8,28.0,29.88,ENE,67,3.5,4.9,75,0.00,,,0.00,Rainwise IP-100,2013-03-09 14:45:00,
2013-03-09 09:51:00,34.9,28.0,29.88,ENE,67,3.3,4.7,73,0.00,,,0.00,Rainwise IP-100,2013-03-09 14:51:00,
2013-03-09 09:56:00,35.3,26.0,29.87,ENE,67,3.5,4.2,71,0.00,,,0.00,Rainwise IP-100,2013-03-09 14:56:00,
2013-03-09 10:01:00,35.7,26.0,29.88,ENE,67,4.2,4.4,69,0.00,,,0.00,Rainwise IP-100,2013-03-09 15:01:00,
2013-03-09 10:06:00,36.0,26.0,29.88,ENE,67,3.0,4.4,67,0.00,,,0.00,Rainwise IP-100,2013-03-09 15:06:00,
2013-03-09 10:11:00,36.5,26.0,29.87,ENE,67,4.0,5.1,65,0.00,,,0.00,Rainwise IP-100,2013-03-09 15:11:00,
2013-03-09 10:16:00,36.7,26.0,29.87,NE,45,5.6,5.6,63,0.00,,,0.00,Rainwise IP-100,2013-03-09 15:16:00,
2013-03-09 10:21:00,37.1,26.0,29.87,ENE,67,4.2,5.6,62,0.00,,,0.00,Rainwise IP-100,2013-03-09 15:21:00,
2013-03-09 10:26:00,37.4,24.0,29.87,ENE,67,4.9,5.4,61,0.00,,,0.00,Rainwise IP-100,2013-03-09 15:26:00,
2013-03-09 10:31:00,37.8,26.0,29.87,ENE,67,3.0,5.1,60,0.00,,,0.00,Rainwise IP-100,2013-03-09 15:31:00,
2013-03-09 10:36:00,38.6,26.0,29.87,ENE,67,3.7,4.0,60,0.00,,,0.00,Rainwise IP-100,2013-03-09 15:36:00,
2013-03-09 10:41:00,39.4,28.0,29.86,ENE,67,1.9,4.0,62,0.00,,,0.00,Rainwise IP-100,2013-03-09 15:41:00,
2013-03-09 10:46:00,40.6,31.0,29.87,ESE,112,1.4,2.6,64,0.00,,,0.00,Rainwise IP-100,2013-03-09 15:46:00,
2013-03-09 10:51:00,41.6,31.0,29.87,ENE,67,1.6,3.0,64,0.00,,,0.00,Rainwise IP-100,2013-03-09 15:51:00,
2013-03-09 10:56:00,41.7,31.0,29.87,ENE,67,3.0,4.0,62,0.00,,,0.00,Rainwise IP-100,2013-03-09 15:56:00,
2013-03-09 11:01:00,41.3,28.0,29.87,ENE,67,4.2,4.7,59,0.00,,,0.00,Rainwise IP-100,2013-03-09 16:01:00,
2013-03-09 11:07:00,41.0,26.0,29.87,ENE,67,3.5,5.1,55,0.00,,,0.00,Rainwise IP-100,2013-03-09 16:07:00,
2013-03-09 11:12:00,41.3,26.0,29.87,NE,45,2.3,3.7,53,0.00,,,0.00,Rainwise IP-100,2013-03-09 16:12:00,
2013-03-09 11:17:00,41.8,26.0,29.87,ENE,67,2.3,4.4,52,0.00,,,0.00,Rainwise IP-100,2013-03-09 16:17:00,
2013-03-09 11:22:00,42.2,26.0,29.87,ENE,67,1.2,3.5,52,0.00,,,0.00,Rainwise IP-100,2013-03-09 16:22:00,
2013-03-09 11:27:00,43.7,28.0,29.87,ENE,67,0.0,2.3,53,0.00,,,0.00,Rainwise IP-100,2013-03-09 16:27:00,
2013-03-09 11:32:00,44.7,29.0,29.87,East,90,2.3,3.3,53,0.00,,,0.00,Rainwise IP-100,2013-03-09 16:32:00,
2013-03-09 11:37:00,45.3,28.0,29.87,East,90,2.1,4.2,51,0.00,,,0.00,Rainwise IP-100,2013-03-09 16:37:00,
2013-03-09 11:42:00,46.1,29.0,29.87,ENE,67,3.3,3.7,50,0.00,,,0.00,Rainwise IP-100,2013-03-09 16:42:00,
2013-03-09 11:47:00,45.4,26.0,29.87,NE,45,3.0,4.7,48,0.00,,,0.00,Rainwise IP-100,2013-03-09 16:47:00,
2013-03-09 11:52:00,44.7,26.0,29.86,NNE,22,4.2,4.4,46,0.00,,,0.00,Rainwise IP-100,2013-03-09 16:52:00,
2013-03-09 11:57:00,45.6,26.0,29.86,NNE,22,0.0,4.2,45,0.00,,,0.00,Rainwise IP-100,2013-03-09 16:57:00,
2013-03-09 12:02:00,46.4,26.0,29.86,NNE,22,3.5,4.2,44,0.00,,,0.00,Rainwise IP-100,2013-03-09 17:02:00,
2013-03-09 12:07:00,46.1,24.0,29.86,ENE,67,2.3,4.9,43,0.00,,,0.00,Rainwise IP-100,2013-03-09 17:07:00,
2013-03-09 12:12:00,45.9,24.0,29.85,NE,45,2.3,3.7,42,0.00,,,0.00,Rainwise IP-100,2013-03-09 17:12:00,
2013-03-09 12:17:00,46.7,24.0,29.85,NNE,22,2.3,4.4,42,0.00,,,0.00,Rainwise IP-100,2013-03-09 17:17:00,
2013-03-09 12:23:00,47.2,24.0,29.85,ENE,67,2.8,4.2,42,0.00,,,0.00,Rainwise IP-100,2013-03-09 17:23:00,
2013-03-09 12:28:00,47.5,26.0,29.85,ENE,67,1.6,4.2,41,0.00,,,0.00,Rainwise IP-100,2013-03-09 17:28:00,
2013-03-09 12:33:00,48.0,26.0,29.84,NE,45,0.0,4.9,41,0.00,,,0.00,Rainwise IP-100,2013-03-09 17:33:00,
2013-03-09 12:38:00,48.8,26.0,29.84,NNE,22,2.1,2.1,41,0.00,,,0.00,Rainwise IP-100,2013-03-09 17:38:00,
2013-03-09 12:43:00,49.6,26.0,29.84,NE,45,3.3,4.0,39,0.00,,,0.00,Rainwise IP-100,2013-03-09 17:43:00,
2013-03-09 12:48:00,49.5,26.0,29.84,ENE,67,1.9,3.5,38,0.00,,,0.00,Rainwise IP-100,2013-03-09 17:48:00,
2013-03-09 12:53:00,49.1,24.0,29.83,ENE,67,3.0,4.7,36,0.00,,,0.00,Rainwise IP-100,2013-03-09 17:53:00,
2013-03-09 12:58:00,48.7,23.0,29.83,ENE,67,2.6,4.0,35,0.00,,,0.00,Rainwise IP-100,2013-03-09 17:58:00,
2013-03-09 13:03:00,48.7,23.0,29.83,ENE,67,2.3,3.5,34,0.00,,,0.00,Rainwise IP-100,2013-03-09 18:03:00,
2013-03-09 13:08:00,48.8,23.0,29.83,ENE,67,4.0,4.2,33,0.00,,,0.00,Rainwise IP-100,2013-03-09 18:08:00,
2013-03-09 13:13:00,49.2,21.0,29.83,SSE,157,0.0,4.2,32,0.00,,,0.00,Rainwise IP-100,2013-03-09 18:13:00,
2013-03-09 13:16:00,49.6,23.0,29.82,ESE,112,1.4,2.6,32,0.00,,,0.00,Rainwise IP-100,2013-03-09 18:16:00,
2013-03-09 13:21:00,50.6,23.0,29.82,ENE,67,3.5,5.4,32,0.00,,,0.00,Rainwise IP-100,2013-03-09 18:21:00,
2013-03-09 13:26:00,50.2,21.0,29.82,ENE,67,3.7,5.6,30,0.00,,,0.00,Rainwise IP-100,2013-03-09 18:26:00,
2013-03-09 13:31:00,50.0,21.0,29.82,ENE,67,0.0,5.4,30,0.00,,,0.00,Rainwise IP-100,2013-03-09 18:31:00,
2013-03-09 13:36:00,51.1,21.0,29.81,NNW,337,0.0,4.0,30,0.00,,,0.00,Rainwise IP-100,2013-03-09 18:36:00,
2013-03-09 13:41:00,52.7,23.0,29.81,SSE,157,1.9,1.9,30,0.00,,,0.00,Rainwise IP-100,2013-03-09 18:41:00,
2013-03-09 13:46:00,53.4,23.0,29.81,NE,45,1.6,3.5,30,0.00,,,0.00,Rainwise IP-100,2013-03-09 18:46:00,
2013-03-09 13:51:00,53.2,23.0,29.81,NE,45,2.1,3.5,29,0.00,,,0.00,Rainwise IP-100,2013-03-09 18:51:00,
2013-03-09 13:57:00,53.4,23.0,29.81,SSE,157,2.1,2.8,29,0.00,,,0.00,Rainwise IP-100,2013-03-09 18:57:00,
2013-03-09 14:02:00,54.0,23.0,29.81,NE,45,6.8,6.8,29,0.00,,,0.00,Rainwise IP-100,2013-03-09 19:02:00,
2013-03-09 14:07:00,53.1,18.0,29.80,NE,45,7.7,9.3,26,0.00,,,0.00,Rainwise IP-100,2013-03-09 19:07:00,
2013-03-09 14:12:00,52.1,18.0,29.80,ENE,67,3.3,9.1,25,0.00,,,0.00,Rainwise IP-100,2013-03-09 19:12:00,
2013-03-09 14:17:00,52.2,18.0,29.81,NNE,22,4.4,9.1,25,0.00,,,0.00,Rainwise IP-100,2013-03-09 19:17:00,
2013-03-09 14:22:00,52.3,16.0,29.80,ENE,67,7.7,11.4,24,0.00,,,0.00,Rainwise IP-100,2013-03-09 19:22:00,
2013-03-09 14:27:00,52.3,16.0,29.80,ENE,67,8.2,11.4,23,0.00,,,0.00,Rainwise IP-100,2013-03-09 19:27:00,
2013-03-09 14:32:00,52.3,16.0,29.80,NE,45,6.1,11.9,24,0.00,,,0.00,Rainwise IP-100,2013-03-09 19:32:00,
2013-03-09 14:37:00,52.3,18.0,29.80,ENE,67,8.6,11.7,25,0.00,,,0.00,Rainwise IP-100,2013-03-09 19:37:00,
2013-03-09 14:42:00,52.4,18.0,29.80,ENE,67,10.7,10.7,25,0.00,,,0.00,Rainwise IP-100,2013-03-09 19:42:00,
2013-03-09 14:47:00,52.7,18.0,29.80,NE,45,5.6,11.9,24,0.00,,,0.00,Rainwise IP-100,2013-03-09 19:47:00,
2013-03-09 14:52:00,52.6,18.0,29.80,ENE,67,8.4,12.4,24,0.00,,,0.00,Rainwise IP-100,2013-03-09 19:52:00,
2013-03-09 14:57:00,52.5,18.0,29.80,NE,45,7.9,8.4,25,0.00,,,0.00,Rainwise IP-100,2013-03-09 19:57:00,
2013-03-09 15:02:00,52.7,18.0,29.80,ENE,67,6.5,10.5,25,0.00,,,0.00,Rainwise IP-100,2013-03-09 20:02:00,
2013-03-09 15:07:00,52.8,18.0,29.80,ENE,67,9.1,11.9,24,0.00,,,0.00,Rainwise IP-100,2013-03-09 20:07:00,
2013-03-09 15:13:00,52.9,18.0,29.80,NE,45,6.3,10.7,24,0.00,,,0.00,Rainwise IP-100,2013-03-09 20:13:00,
2013-03-09 15:18:00,53.1,18.0,29.80,ENE,67,6.3,11.2,24,0.00,,,0.00,Rainwise IP-100,2013-03-09 20:18:00,
2013-03-09 15:23:00,53.1,18.0,29.81,ENE,67,9.3,9.8,24,0.00,,,0.00,Rainwise IP-100,2013-03-09 20:23:00,
2013-03-09 15:28:00,53.1,18.0,29.81,ENE,67,5.8,9.8,24,0.00,,,0.00,Rainwise IP-100,2013-03-09 20:28:00,
2013-03-09 15:33:00,53.0,18.0,29.81,NNE,22,2.6,10.5,24,0.00,,,0.00,Rainwise IP-100,2013-03-09 20:33:00,
2013-03-09 15:38:00,53.0,18.0,29.81,NNE,22,4.2,10.0,25,0.00,,,0.00,Rainwise IP-100,2013-03-09 20:38:00,
2013-03-09 15:43:00,52.9,18.0,29.81,NE,45,5.1,9.1,25,0.00,,,0.00,Rainwise IP-100,2013-03-09 20:43:00,
2013-03-09 15:48:00,52.8,18.0,29.81,NNE,22,2.1,8.9,25,0.00,,,0.00,Rainwise IP-100,2013-03-09 20:48:00,
2013-03-09 15:53:00,53.0,18.0,29.81,ENE,67,4.7,4.7,25,0.00,,,0.00,Rainwise IP-100,2013-03-09 20:53:00,
2013-03-09 15:58:00,53.0,18.0,29.81,ENE,67,3.7,7.7,25,0.00,,,0.00,Rainwise IP-100,2013-03-09 20:58:00,
2013-03-09 16:03:00,52.7,18.0,29.81,NNE,22,4.2,11.0,25,0.00,,,0.00,Rainwise IP-100,2013-03-09 21:03:00,
2013-03-09 16:08:00,52.6,18.0,29.81,NNE,22,4.4,7.5,25,0.00,,,0.00,Rainwise IP-100,2013-03-09 21:08:00,
2013-03-09 16:13:00,52.8,18.0,29.82,ENE,67,6.1,8.4,24,0.00,,,0.00,Rainwise IP-100,2013-03-09 21:13:00,
2013-03-09 16:18:00,52.9,18.0,29.82,ENE,67,3.0,7.7,24,0.00,,,0.00,Rainwise IP-100,2013-03-09 21:18:00,
2013-03-09 16:23:00,52.9,18.0,29.82,NNE,22,2.8,7.0,24,0.00,,,0.00,Rainwise IP-100,2013-03-09 21:23:00,
2013-03-09 16:29:00,52.8,18.0,29.82,ENE,67,1.4,7.7,24,0.00,,,0.00,Rainwise IP-100,2013-03-09 21:29:00,
2013-03-09 16:34:00,53.0,18.0,29.82,NE,45,2.1,6.8,24,0.00,,,0.00,Rainwise IP-100,2013-03-09 21:34:00,
2013-03-09 16:39:00,53.1,18.0,29.82,NNE,22,2.1,5.4,24,0.00,,,0.00,Rainwise IP-100,2013-03-09 21:39:00,
2013-03-09 16:44:00,52.9,18.0,29.83,NE,45,2.8,3.0,24,0.00,,,0.00,Rainwise IP-100,2013-03-09 21:44:00,
2013-03-09 16:49:00,52.6,18.0,29.83,NNE,22,0.0,5.4,24,0.00,,,0.00,Rainwise IP-100,2013-03-09 21:49:00,
2013-03-09 16:54:00,52.1,18.0,29.83,NNE,22,1.4,4.9,25,0.00,,,0.00,Rainwise IP-100,2013-03-09 21:54:00,
2013-03-09 16:59:00,51.7,18.0,29.83,ENE,67,3.5,3.5,25,0.00,,,0.00,Rainwise IP-100,2013-03-09 21:59:00,
2013-03-09 17:04:00,51.4,18.0,29.83,NNW,337,3.0,4.4,25,0.00,,,0.00,Rainwise IP-100,2013-03-09 22:04:00,
2013-03-09 17:09:00,51.2,18.0,29.83,NNE,22,1.6,3.5,26,0.00,,,0.00,Rainwise IP-100,2013-03-09 22:09:00,
2013-03-09 17:14:00,51.1,18.0,29.83,NNE,22,1.6,4.2,26,0.00,,,0.00,Rainwise IP-100,2013-03-09 22:14:00,
2013-03-09 17:19:00,50.7,18.0,29.84,NNW,337,2.3,2.3,26,0.00,,,0.00,Rainwise IP-100,2013-03-09 22:19:00,
2013-03-09 17:24:00,50.2,18.0,29.84,NNW,337,0.0,2.8,27,0.00,,,0.00,Rainwise IP-100,2013-03-09 22:24:00,
2013-03-09 17:29:00,49.8,18.0,29.84,WNW,292,1.2,2.8,28,0.00,,,0.00,Rainwise IP-100,2013-03-09 22:29:00,
2013-03-09 17:34:00,49.5,18.0,29.83,WNW,292,0.0,2.1,28,0.00,,,0.00,Rainwise IP-100,2013-03-09 22:34:00,
2013-03-09 17:39:00,48.9,18.0,29.84,WNW,292,0.0,1.6,29,0.00,,,0.00,Rainwise IP-100,2013-03-09 22:39:00,
2013-03-09 17:45:00,47.8,21.0,29.84,WNW,292,0.0,1.2,31,0.00,,,0.00,Rainwise IP-100,2013-03-09 22:45:00,
2013-03-09 17:50:00,46.6,18.0,29.84,WNW,292,0.0,0.0,32,0.00,,,0.00,Rainwise IP-100,2013-03-09 22:50:00,
2013-03-09 17:55:00,45.6,21.0,29.84,WNW,292,0.0,0.0,34,0.00,,,0.00,Rainwise IP-100,2013-03-09 22:55:00,
2013-03-09 18:00:00,44.6,21.0,29.84,WNW,292,0.0,0.0,35,0.00,,,0.00,Rainwise IP-100,2013-03-09 23:00:00,
2013-03-09 18:05:00,43.3,18.0,29.84,WNW,292,0.0,0.0,37,0.00,,,0.00,Rainwise IP-100,2013-03-09 23:05:00,
2013-03-09 18:10:00,41.3,21.0,29.84,ENE,67,0.0,3.0,42,0.00,,,0.00,Rainwise IP-100,2013-03-09 23:10:00,
2013-03-09 18:15:00,40.3,23.0,29.84,ENE,67,0.0,2.3,46,0.00,,,0.00,Rainwise IP-100,2013-03-09 23:15:00,
2013-03-09 18:20:00,40.0,23.0,29.84,ENE,67,0.0,0.0,48,0.00,,,0.00,Rainwise IP-100,2013-03-09 23:20:00,
2013-03-09 18:25:00,39.6,23.0,29.84,WSW,247,0.0,1.2,48,0.00,,,0.00,Rainwise IP-100,2013-03-09 23:25:00,
2013-03-09 18:30:00,39.1,21.0,29.85,WSW,247,0.0,0.0,46,0.00,,,0.00,Rainwise IP-100,2013-03-09 23:30:00,
2013-03-09 18:35:00,38.4,21.0,29.85,WSW,247,0.0,0.0,48,0.00,,,0.00,Rainwise IP-100,2013-03-09 23:35:00,
2013-03-09 18:40:00,37.7,23.0,29.85,WSW,247,0.0,0.0,51,0.00,,,0.00,Rainwise IP-100,2013-03-09 23:40:00,
2013-03-09 18:45:00,37.1,23.0,29.85,WSW,247,0.0,0.0,54,0.00,,,0.00,Rainwise IP-100,2013-03-09 23:45:00,
2013-03-09 18:50:00,36.4,23.0,29.85,WSW,247,0.0,0.0,57,0.00,,,0.00,Rainwise IP-100,2013-03-09 23:50:00,
2013-03-09 18:55:00,36.1,23.0,29.85,WSW,247,0.0,0.0,58,0.00,,,0.00,Rainwise IP-100,2013-03-09 23:55:00,
2013-03-09 19:01:00,36.0,23.0,29.85,WSW,247,1.9,1.9,59,0.00,,,0.00,Rainwise IP-100,2013-03-10 00:01:00,
2013-03-09 19:06:00,35.8,23.0,29.85,WSW,247,0.0,2.1,59,0.00,,,0.00,Rainwise IP-100,2013-03-10 00:06:00,
2013-03-09 19:11:00,35.7,23.0,29.85,SSW,202,1.6,1.6,59,0.00,,,0.00,Rainwise IP-100,2013-03-10 00:11:00,
2013-03-09 19:16:00,35.4,23.0,29.85,SSW,202,1.2,2.6,60,0.00,,,0.00,Rainwise IP-100,2013-03-10 00:16:00,
2013-03-09 19:21:00,35.3,23.0,29.86,NNW,337,0.0,2.6,60,0.00,,,0.00,Rainwise IP-100,2013-03-10 00:21:00,
2013-03-09 19:26:00,35.0,23.0,29.86,NNW,337,1.2,2.3,61,0.00,,,0.00,Rainwise IP-100,2013-03-10 00:26:00,
2013-03-09 19:31:00,34.2,23.0,29.86,NNW,337,0.0,1.4,62,0.00,,,0.00,Rainwise IP-100,2013-03-10 00:31:00,
2013-03-09 19:36:00,33.7,24.0,29.86,NNW,337,0.0,0.0,64,0.00,,,0.00,Rainwise IP-100,2013-03-10 00:36:00,
2013-03-09 19:41:00,33.4,23.0,29.86,NNW,337,0.0,0.0,65,0.00,,,0.00,Rainwise IP-100,2013-03-10 00:41:00,
2013-03-09 19:46:00,33.1,24.0,29.87,NNW,337,0.0,0.0,67,0.00,,,0.00,Rainwise IP-100,2013-03-10 00:46:00,
2013-03-09 19:52:00,32.7,24.0,29.87,NNW,337,0.0,0.0,68,0.00,,,0.00,Rainwise IP-100,2013-03-10 00:52:00,
2013-03-09 19:57:00,32.2,23.0,29.87,NNW,337,0.0,0.0,69,0.00,,,0.00,Rainwise IP-100,2013-03-10 00:57:00,
2013-03-09 20:02:00,32.0,24.0,29.87,NNW,337,0.0,0.0,70,0.00,,,0.00,Rainwise IP-100,2013-03-10 01:02:00,
2013-03-09 20:07:00,31.9,24.0,29.88,NNW,337,1.2,1.9,70,0.00,,,0.00,Rainwise IP-100,2013-03-10 01:07:00,
2013-03-09 20:12:00,31.6,23.0,29.87,NNW,337,0.0,1.4,69,0.00,,,0.00,Rainwise IP-100,2013-03-10 01:12:00,
2013-03-09 20:17:00,31.4,23.0,29.87,NNW,337,0.0,0.0,71,0.00,,,0.00,Rainwise IP-100,2013-03-10 01:17:00,
2013-03-09 20:22:00,31.2,23.0,29.88,NNW,337,0.0,0.0,72,0.00,,,0.00,Rainwise IP-100,2013-03-10 01:22:00,
2013-03-09 20:27:00,30.7,23.0,29.88,NNW,337,0.0,0.0,73,0.00,,,0.00,Rainwise IP-100,2013-03-10 01:27:00,
2013-03-09 20:32:00,30.4,24.0,29.87,NNW,337,0.0,0.0,74,0.00,,,0.00,Rainwise IP-100,2013-03-10 01:32:00,
2013-03-09 20:37:00,30.1,24.0,29.87,NNW,337,0.0,0.0,75,0.00,,,0.00,Rainwise IP-100,2013-03-10 01:37:00,
2013-03-09 20:42:00,29.8,24.0,29.87,NNW,337,0.0,0.0,76,0.00,,,0.00,Rainwise IP-100,2013-03-10 01:42:00,
2013-03-09 20:47:00,29.5,24.0,29.87,NNW,337,0.0,0.0,76,0.00,,,0.00,Rainwise IP-100,2013-03-10 01:47:00,
2013-03-09 20:52:00,29.3,23.0,29.88,NNW,337,0.0,0.0,77,0.00,,,0.00,Rainwise IP-100,2013-03-10 01:52:00,
2013-03-09 20:57:00,29.2,23.0,29.88,NNW,337,0.0,0.0,78,0.00,,,0.00,Rainwise IP-100,2013-03-10 01:57:00,
2013-03-09 21:02:00,29.1,23.0,29.87,NNW,337,0.0,0.0,78,0.00,,,0.00,Rainwise IP-100,2013-03-10 02:02:00,
2013-03-09 21:08:00,28.9,24.0,29.87,NNW,337,0.0,0.0,79,0.00,,,0.00,Rainwise IP-100,2013-03-10 02:08:00,
2013-03-09 21:13:00,29.0,24.0,29.87,NNW,337,0.0,0.0,79,0.00,,,0.00,Rainwise IP-100,2013-03-10 02:13:00,
2013-03-09 21:18:00,29.0,23.0,29.87,NNW,337,0.0,1.4,78,0.00,,,0.00,Rainwise IP-100,2013-03-10 02:18:00,
2013-03-09 21:23:00,28.6,23.0,29.87,NNW,337,0.0,1.2,78,0.00,,,0.00,Rainwise IP-100,2013-03-10 02:23:00,
2013-03-09 21:28:00,28.4,23.0,29.87,NNW,337,0.0,0.0,79,0.00,,,0.00,Rainwise IP-100,2013-03-10 02:28:00,
2013-03-09 21:33:00,28.5,24.0,29.87,NNW,337,0.0,0.0,80,0.00,,,0.00,Rainwise IP-100,2013-03-10 02:33:00,
2013-03-09 21:38:00,28.3,23.0,29.88,NNW,337,0.0,0.0,81,0.00,,,0.00,Rainwise IP-100,2013-03-10 02:38:00,
2013-03-09 21:43:00,28.0,23.0,29.88,NNW,337,0.0,0.0,82,0.00,,,0.00,Rainwise IP-100,2013-03-10 02:43:00,
2013-03-09 21:48:00,27.9,23.0,29.87,NNW,337,0.0,0.0,82,0.00,,,0.00,Rainwise IP-100,2013-03-10 02:48:00,
2013-03-09 21:53:00,27.8,23.0,29.88,NNW,337,0.0,0.0,83,0.00,,,0.00,Rainwise IP-100,2013-03-10 02:53:00,
2013-03-09 21:58:00,27.7,23.0,29.88,NNW,337,0.0,0.0,83,0.00,,,0.00,Rainwise IP-100,2013-03-10 02:58:00,
2013-03-09 22:03:00,27.6,23.0,29.88,NNW,337,1.2,0.0,83,0.00,,,0.00,Rainwise IP-100,2013-03-10 03:03:00,
2013-03-09 22:08:00,27.4,23.0,29.88,NNW,337,0.0,1.6,83,0.00,,,0.00,Rainwise IP-100,2013-03-10 03:08:00,
2013-03-09 22:13:00,27.2,23.0,29.88,NNW,337,0.0,0.0,83,0.00,,,0.00,Rainwise IP-100,2013-03-10 03:13:00,
2013-03-09 22:18:00,27.1,23.0,29.88,NNW,337,0.0,0.0,83,0.00,,,0.00,Rainwise IP-100,2013-03-10 03:18:00,
2013-03-09 22:24:00,27.0,23.0,29.88,NNW,337,0.0,0.0,83,0.00,,,0.00,Rainwise IP-100,2013-03-10 03:24:00,
2013-03-09 22:29:00,26.9,24.0,29.88,NNW,337,0.0,0.0,84,0.00,,,0.00,Rainwise IP-100,2013-03-10 03:29:00,
2013-03-09 22:34:00,26.8,24.0,29.88,NNW,337,0.0,0.0,84,0.00,,,0.00,Rainwise IP-100,2013-03-10 03:34:00,
2013-03-09 22:39:00,26.7,24.0,29.88,NNW,337,0.0,0.0,84,0.00,,,0.00,Rainwise IP-100,2013-03-10 03:39:00,
2013-03-09 22:44:00,26.7,24.0,29.88,NNW,337,0.0,0.0,85,0.00,,,0.00,Rainwise IP-100,2013-03-10 03:44:00,
2013-03-09 22:49:00,26.7,24.0,29.88,NNW,337,0.0,0.0,85,0.00,,,0.00,Rainwise IP-100,2013-03-10 03:49:00,
2013-03-09 22:54:00,26.4,23.0,29.89,NNW,337,0.0,0.0,85,0.00,,,0.00,Rainwise IP-100,2013-03-10 03:54:00,
2013-03-09 22:59:00,26.4,23.0,29.89,NNW,337,0.0,0.0,85,0.00,,,0.00,Rainwise IP-100,2013-03-10 03:59:00,
2013-03-09 23:04:00,26.5,24.0,29.89,NNW,337,0.0,0.0,85,0.00,,,0.00,Rainwise IP-100,2013-03-10 04:04:00,
2013-03-09 23:09:00,26.2,23.0,29.88,NNW,337,0.0,0.0,85,0.00,,,0.00,Rainwise IP-100,2013-03-10 04:09:00,
2013-03-09 23:14:00,25.9,23.0,29.89,NNW,337,0.0,0.0,85,0.00,,,0.00,Rainwise IP-100,2013-03-10 04:14:00,
2013-03-09 23:19:00,25.6,23.0,29.89,NNW,337,0.0,0.0,86,0.00,,,0.00,Rainwise IP-100,2013-03-10 04:19:00,
2013-03-09 23:24:00,25.5,23.0,29.89,NNW,337,0.0,0.0,86,0.00,,,0.00,Rainwise IP-100,2013-03-10 04:24:00,
2013-03-09 23:29:00,25.7,23.0,29.89,NNW,337,0.0,0.0,87,0.00,,,0.00,Rainwise IP-100,2013-03-10 04:29:00,
2013-03-09 23:34:00,25.6,23.0,29.89,NNW,337,0.0,0.0,86,0.00,,,0.00,Rainwise IP-100,2013-03-10 04:34:00,
2013-03-09 23:40:00,25.5,23.0,29.89,NNW,337,0.0,0.0,86,0.00,,,0.00,Rainwise IP-100,2013-03-10 04:40:00,
2013-03-09 23:45:00,25.5,23.0,29.90,NNW,337,0.0,0.0,87,0.00,,,0.00,Rainwise IP-100,2013-03-10 04:45:00,
2013-03-09 23:50:00,25.5,23.0,29.90,NNW,337,0.0,0.0,87,0.00,,,0.00,Rainwise IP-100,2013-03-10 04:50:00,
2013-03-09 23:55:00,25.6,23.0,29.90,NNW,337,0.0,0.0,88,0.00,,,0.00,Rainwise IP-100,2013-03-10 04:55:00,